Location: Saluda
(35.2377°N, 82.3468°W)
Time: 19:18:32
(UTC+00:00)

Explorer 11/Cluster Stage 4 - Pass Details

Date: 11 October 2022
Orbit: 466 x 1247 km, 28.8° (Epoch: 01 December)

Event Time Altitude Azimuth Distance (km) Brightness Sun altitude
Rises 11:59:35 0° 217° (SW) 3,502 9.7 4.7°
Reaches altitude 10° 12:02:31 10° 204° (SSW) 2,696 9.2 5.2°
Maximum altitude 12:07:43 24° 153° (SSE) 2,051 9.4 6.3°
Drops below altitude 10° 12:13:36 10° 103° (ESE) 3,085 13.4 7.4°
Sets 12:17:11 0° 91° (E) 4,124 12.1 8.2°
